Tracking 35334 objects as of 13-Sep-2026
HD Live streaming from Space Station
objects crossing your sky now

YZ-1A R/B


YZ-1A R/B is no longer on orbit


NORAD ID: 41624
Int'l Code: 2016-042A
Launch date: June 25, 2016
Source: People's Republic of China (PRC)
Launch site: Wenchang Satellite Launch Center (WSC)
Decay date: 2016-06-27

Note: This is a ROCKET BODY
Your satellite tracking list
Your tracking list is empty




NASA's NSSDC Master Catalog

Two Line Element Set (TLE):
1 41624U 16042A   16179.88643300 -.00002082  65882-5  00000+0 0  9992
2 41624  40.8063  35.5487 0070040 191.3279 197.0691 15.78471578   382
Source of the keplerian elements: AFSPC